Date String (YYYY-MM-DD hh:mm:ss) UTC,Instrument flags,Ambient pressure (hPa),Sample flow (lpm),Bypass flow (lpm),Sample temperature (°C),Ambient temperature (°C),ASC tube jacket temperature (°C),LED temperature (°C),Box temperature (°C),Sample RH (%),Span deviation,Mass concentration (μg/m³),Mass concentration (μg/m³),Mass concentration (μg/m³)
DateTimeUTC,F1_M11,P_M11,Q1_M11,Q2_M11,T1_M11,T2_M11,T3_M11,T4_M11,T5_M11,U1_M11,ZSPAN_M11,X0_M11,X2_M11,X1_M11
2023-01-23 06:00:00,,0822.8,5.00,0.00,22.9,21.5,00.0,31.8,24.8,11.0,0000.5,0019.57,0011.43,0010.36
2023-01-23 06:01:00,,0822.8,5.00,0.00,22.9,21.5,00.0,31.8,24.8,10.9,0000.0,0019.95,0011.50,0010.41
2023-01-23 06:02:00,,0822.8,5.00,0.00,22.9,21.5,00.0,31.7,24.8,10.9,0000.5,0020.37,0011.47,0010.42
2023-01-23 06:03:00,,0822.8,5.01,0.00,22.9,21.5,00.0,31.7,24.7,10.9,0000.6,0020.50,0011.48,0010.45
2023-01-23 06:04:00,,0822.9,4.99,0.00,22.9,21.4,00.0,31.7,24.7,10.9,-000.1,0019.66,0011.54,0010.52
2023-01-23 06:05:00,,0822.9,4.99,0.00,22.9,21.4,00.0,31.7,24.7,10.9,0000.1,0020.13,0011.53,0010.56
2023-01-23 06:06:00,,0823.0,5.00,0.00,22.9,21.4,00.0,31.7,24.7,11.0,0000.2,0021.03,0011.51,0010.56
2023-01-23 06:07:00,,0823.0,5.01,0.00,22.9,21.4,00.0,31.7,24.7,11.1,0000.1,0021.77,0011.55,0010.60
2023-01-23 06:08:00,,0823.0,5.00,0.00,22.9,21.4,00.0,31.7,24.7,11.0,-000.1,0021.81,0011.61,0010.69
2023-01-23 06:09:00,,0823.0,5.02,0.00,22.9,21.4,00.0,31.7,24.6,11.0,-000.4,0022.41,0011.70,0010.81
2023-01-23 06:10:00,,0823.0,5.01,0.00,22.9,21.4,00.0,31.7,24.6,11.1,-000.6,0022.55,0011.85,0011.01
2023-01-23 06:11:00,,0823.0,5.00,0.00,22.9,21.4,00.0,31.7,24.6,11.2,-000.4,0022.47,0012.05,0011.22
2023-01-23 06:12:00,,0823.0,5.00,0.00,22.9,21.4,00.0,31.7,24.6,11.3,0000.1,0023.45,0012.52,0011.68
2023-01-23 06:13:00,,0823.0,5.00,0.00,22.8,21.4,00.0,31.7,24.6,11.4,-000.0,0024.28,0013.05,0012.17
2023-01-23 06:14:00,,0823.0,4.99,0.00,22.8,21.4,00.0,31.7,24.7,11.4,-000.2,0025.37,0013.57,0012.65
2023-01-23 06:15:00,,0823.0,5.00,0.00,22.8,21.3,00.0,31.7,24.6,11.4,-000.0,0026.30,0014.13,0013.19
2023-01-23 06:16:00,,0822.9,5.01,0.00,22.8,21.3,00.0,31.7,24.6,11.4,0000.1,0026.48,0014.72,0013.74
2023-01-23 06:17:00,,0822.9,5.01,0.00,22.8,21.3,00.0,31.7,24.6,11.4,-000.4,0026.12,0015.29,0014.35
2023-01-23 06:18:00,,0822.9,5.00,0.00,22.8,21.3,00.0,31.7,24.7,11.5,-000.5,0026.51,0015.90,0014.95
2023-01-23 06:19:00,,0823.0,5.00,0.00,22.8,21.3,00.0,31.7,24.6,11.5,-000.3,0027.47,0016.42,0015.52
2023-01-23 06:20:00,,0823.0,5.02,0.00,22.8,21.3,00.0,31.6,24.6,11.5,-000.1,0027.88,0016.94,0016.02
2023-01-23 06:21:00,,0823.0,4.99,0.00,22.8,21.3,00.0,31.6,24.6,11.5,0000.0,0028.77,0017.32,0016.35
2023-01-23 06:22:00,,0823.0,5.00,0.00,22.8,21.3,00.0,31.6,24.6,11.5,0000.3,0029.55,0017.60,0016.64
2023-01-23 06:23:00,,0823.0,5.01,0.00,22.8,21.3,00.0,31.6,24.6,11.5,0000.3,0029.67,0017.70,0016.77
2023-01-23 06:24:00,,0823.1,5.00,0.00,22.8,21.3,00.0,31.6,24.6,11.5,0000.7,0029.85,0017.74,0016.87
2023-01-23 06:25:00,,0823.1,5.01,0.00,22.8,21.3,00.0,31.6,24.6,11.4,0000.9,0029.66,0017.86,0017.01
2023-01-23 06:26:00,,0823.1,5.01,0.00,22.8,21.3,00.0,31.6,24.6,11.5,0000.5,0029.28,0017.87,0017.06
2023-01-23 06:27:00,,0823.2,4.98,0.00,22.8,21.3,00.0,31.6,24.6,11.5,0000.1,0029.38,0017.92,0017.08
2023-01-23 06:28:00,,0823.2,4.99,0.00,22.8,21.3,00.0,31.6,24.6,11.5,0000.2,0029.43,0017.93,0017.11
2023-01-23 06:29:00,,0823.2,5.01,0.00,22.8,21.3,00.0,31.6,24.5,11.5,0000.8,0029.54,0017.90,0017.10
2023-01-23 06:30:00,,0823.2,5.01,0.00,22.7,21.2,00.0,31.6,24.5,11.5,0000.6,0029.21,0017.92,0017.11
2023-01-23 06:31:00,,0823.3,4.99,0.00,22.7,21.2,00.0,31.6,24.5,11.5,0000.8,0029.01,0017.93,0017.16
2023-01-23 06:32:00,,0823.2,4.99,0.00,22.7,21.2,00.0,31.6,24.5,11.5,0000.9,0028.61,0017.96,0017.21
2023-01-23 06:33:00,,0823.3,5.01,0.00,22.7,21.2,00.0,31.6,24.6,11.6,0000.8,0028.30,0017.99,0017.25
2023-01-23 06:34:00,,0823.2,5.01,0.00,22.7,21.2,00.0,31.6,24.6,11.6,0000.6,0028.04,0018.11,0017.34
2023-01-23 06:35:00,,0823.2,5.00,0.00,22.7,21.2,00.0,31.6,24.6,11.6,0000.5,0028.06,0018.24,0017.46
2023-01-23 06:36:00,,0823.2,5.00,0.00,22.7,21.2,00.0,31.6,24.5,11.6,0000.5,0028.18,0018.35,0017.57
2023-01-23 06:37:00,,0823.2,5.00,0.00,22.7,21.2,00.0,31.5,24.5,11.6,0001.1,0028.35,0018.40,0017.63
2023-01-23 06:38:00,,0823.2,5.01,0.00,22.7,21.2,00.0,31.5,24.5,11.5,0001.2,0028.30,0018.40,0017.66
2023-01-23 06:39:00,,0823.2,4.99,0.00,22.7,21.2,00.0,31.5,24.5,11.5,0001.7,0028.88,0018.38,0017.66
2023-01-23 06:40:00,,0823.2,5.00,0.00,22.7,21.2,00.0,31.5,24.5,11.6,0001.4,0028.85,0018.41,0017.66
2023-01-23 06:41:00,,0823.2,5.00,0.00,22.7,21.2,00.0,31.5,24.5,11.5,0001.3,0028.98,0018.32,0017.60
2023-01-23 06:42:00,,0823.2,5.01,0.00,22.7,21.2,00.0,31.5,24.5,11.5,0000.9,0028.82,0018.23,0017.51
2023-01-23 06:43:00,,0823.3,4.99,0.00,22.7,21.2,00.0,31.5,24.5,11.5,0000.8,0028.73,0018.11,0017.39
2023-01-23 06:44:00,,0823.4,5.01,0.00,22.7,21.2,00.0,31.5,24.5,11.5,0001.3,0028.47,0017.99,0017.25
2023-01-23 06:45:00,,0823.4,5.01,0.00,22.7,21.2,00.0,31.5,24.5,11.5,0001.7,0027.92,0017.74,0017.02
2023-01-23 06:46:00,,0823.4,5.00,0.00,22.7,21.2,00.0,31.5,24.5,11.5,0001.5,0027.17,0017.49,0016.77
2023-01-23 06:47:00,,0823.4,4.99,0.00,22.7,21.2,00.0,31.5,24.5,11.5,0001.9,0027.19,0017.22,0016.53
2023-01-23 06:48:00,,0823.4,4.99,0.00,22.7,21.2,00.0,31.5,24.5,11.4,0001.9,0026.83,0017.01,0016.32
2023-01-23 06:49:00,,0823.4,5.00,0.00,22.7,21.2,00.0,31.5,24.5,11.4,0001.8,0026.60,0016.83,0016.14
2023-01-23 06:50:00,,0823.4,4.99,0.00,22.6,21.2,00.0,31.5,24.5,11.4,0001.5,0025.83,0016.75,0016.04
2023-01-23 06:51:00,,0823.4,5.00,0.00,22.6,21.2,00.0,31.5,24.5,11.4,0001.9,0025.17,0016.62,0015.91
2023-01-23 06:52:00,,0823.4,5.00,0.00,22.6,21.2,00.0,31.5,24.5,11.4,0002.2,0025.21,0016.58,0015.84
2023-01-23 06:53:00,,0823.3,4.99,0.00,22.6,21.2,00.0,31.5,24.5,11.5,0002.5,0025.70,0016.55,0015.81
2023-01-23 06:54:00,,0823.3,4.99,0.00,22.6,21.2,00.0,31.5,24.5,11.5,0002.4,0025.61,0016.57,0015.84
2023-01-23 06:55:00,,0823.3,5.01,0.00,22.6,21.2,00.0,31.4,24.5,11.5,0001.8,0025.71,0016.64,0015.92
2023-01-23 06:56:00,,0823.3,5.02,0.00,22.6,21.2,00.0,31.4,24.4,11.6,0001.3,0026.03,0016.74,0016.02
2023-01-23 06:57:00,,0823.3,5.00,0.00,22.6,21.2,00.0,31.4,24.4,11.6,0001.5,0026.33,0016.93,0016.19
2023-01-23 06:58:00,,0823.3,5.00,0.00,22.6,21.2,00.0,31.4,24.4,11.6,0001.4,0025.95,0017.16,0016.39
2023-01-23 06:59:00,,0823.3,4.99,0.00,22.6,21.2,00.0,31.4,24.5,11.6,0001.1,0026.09,0017.34,0016.58
